Weather History for PADQ - January, 2012

Change the Weather History Date:

Tuesday, January 31, 2012

  Actual Average Record
Temperature  
Mean Temperature 27 °F 30 °F  
Max Temperature 35 °F 35 °F 54 °F (1963)
Min Temperature 18 °F 26 °F -4 °F (1999)
Degree Days  
Heating Degree Days 38 35  
Month to date heating degree days 1347 1073  
Since 1 July heating degree days 5368 4914  
Cooling Degree Days 0    
Month to date cooling degree days 0  
Year to date cooling degree days 0  
Moisture  
Dew Point 26 °F    
Average Humidity 0    
Maximum Humidity 0    
Minimum Humidity 0    
Precipitation  
Precipitation 0.01 in 0.23 in 0.90 in (1994)
Month to date precipitation 4.72 8.29  
Year to date precipitation 4.72 8.29  
Snow  
Snow T in 0.50 in 9.00 in (1967)
Month to date snowfall 48.6 13.0  
Since 1 July snowfall 85.1 34.3  
Snow Depth 28.00 in    
Sea Level Pressure  
Sea Level Pressure 29.27 in    
Wind  
Wind Speed 8 mph (NW)    
Max Wind Speed 26 mph    
Max Gust Speed 31 mph    
Visibility 8 miles    
Events Snow    
T = Trace of Precipitation, MM = Missing Value Source: NWS Daily Summary

Daily Weather History Graph

Daily Weather History Graph

Search for Another Location

Airport or City:

Trip Planner

Search our weather history database for the weather conditions in past years. The results will help you decide how hot, cold, wet, or windy it might be!

Date:

Astronomy

Jan. 31, 2012 Rise Set
Actual Time 9:14 AM AKST 5:32 PM AKST
Civil Twilight 8:31 AM AKST 6:16 PM AKST
Nautical Twilight 7:43 AM AKST 7:03 PM AKST
Astronomical Twilight 6:58 AM AKST 7:49 PM AKST
Moon 11:15 AM AKST (1/31) 3:22 AM AKST (1/31)
Length of Visible Light 9h 45m
Length of Day
8h 17m
First Quarter, 57% of the Moon is Illuminated
Jan 31
First Quarter
Feb 7
Full
Feb 14
Last Quarter
Feb 21
New
Feb 29
First Quarter

Hourly Weather History & Observations

Time (AKST) Temp. Windchill Dew Point Humidity Pressure Visibility Wind Dir Wind Speed Gust Speed Precip Events Conditions
12:53 AM 30.9 °F 20.7 °F 26.1 °F 82% 29.21 in 10.0 mi NW 13.8 mph - N/A   Mostly Cloudy
1:53 AM 30.9 °F 21.7 °F 26.1 °F 82% 29.23 in 10.0 mi NW 11.5 mph - N/A   Overcast
3:53 AM 27.0 °F 18.7 °F 21.0 °F 78% 29.26 in 10.0 mi West 8.1 mph - N/A   Scattered Clouds
4:53 AM 19.0 °F 11.1 °F 16.0 °F 88% 29.26 in 10.0 mi West 5.8 mph - N/A   Partly Cloudy
5:53 AM 21.9 °F 14.5 °F 19.0 °F 89% 29.28 in 10.0 mi WNW 5.8 mph - N/A   Mostly Cloudy
6:53 AM 21.0 °F 14.6 °F 19.0 °F 92% 29.29 in 10.0 mi West 4.6 mph - N/A   Mostly Cloudy
7:53 AM 21.9 °F - 18.0 °F 85% 29.30 in 10.0 mi Calm Calm - N/A   Overcast
8:53 AM 21.9 °F 15.7 °F 19.0 °F 89% 29.30 in 9.0 mi WNW 4.6 mph - N/A   Mostly Cloudy
9:53 AM 21.9 °F 15.7 °F 18.0 °F 85% 29.32 in 10.0 mi West 4.6 mph - N/A   Mostly Cloudy
10:53 AM 23.0 °F 18.4 °F 19.0 °F 85% 29.33 in 10.0 mi West 3.5 mph - N/A   Mostly Cloudy
11:53 AM 26.1 °F 19.4 °F 21.9 °F 84% 29.34 in 10.0 mi WNW 5.8 mph - N/A   Mostly Cloudy
12:53 PM 30.0 °F 26.5 °F 25.0 °F 82% 29.33 in 10.0 mi West 3.5 mph - N/A   Mostly Cloudy
1:53 PM 30.9 °F - 27.0 °F 85% 29.33 in 7.0 mi Calm Calm - 0.00 in Snow Light Snow
2:33 PM 32.0 °F - 28.4 °F 87% 29.31 in 4.0 mi Calm Calm - 0.00 in Snow Light Snow
2:53 PM 33.1 °F 26.9 °F 30.0 °F 89% 29.30 in 4.0 mi East 6.9 mph - 0.00 in Snow Light Snow
3:53 PM 33.1 °F - 30.0 °F 89% 29.30 in 10.0 mi Calm Calm - 0.00 in   Mostly Cloudy
4:53 PM 30.9 °F - 28.0 °F 89% 29.29 in 10.0 mi Calm Calm - N/A   Mostly Cloudy
5:53 PM 33.1 °F 26.9 °F 28.9 °F 85% 29.29 in 10.0 mi SE 6.9 mph - N/A   Overcast
6:25 PM 32.0 °F 24.8 °F 30.2 °F 93% 29.28 in 7.0 mi ESE 8.1 mph - 0.00 in Snow Light Snow
6:33 PM 33.8 °F 26.4 °F 30.2 °F 87% 29.28 in 4.0 mi ESE 9.2 mph - 0.00 in Snow Light Snow
6:53 PM 32.0 °F 25.6 °F 30.9 °F 96% 29.28 in 4.0 mi ESE 6.9 mph - 0.00 in Snow Light Snow
7:53 PM 33.1 °F 26.9 °F 30.0 °F 89% 29.26 in 5.0 mi ESE 6.9 mph - 0.00 in Snow Light Snow
8:53 PM 33.1 °F 24.9 °F 30.9 °F 92% 29.25 in 10.0 mi East 10.4 mph - 0.00 in   Overcast
9:53 PM 34.0 °F 23.4 °F 32.0 °F 92% 29.22 in 7.0 mi East 17.3 mph - 0.01 in   Overcast
10:53 PM 34.0 °F 21.8 °F 30.9 °F 89% 29.18 in 9.0 mi East 23.0 mph 27.6 mph 0.00 in Snow Light Snow
11:15 PM 35.6 °F 24.2 °F 30.2 °F 81% 29.16 in 9.0 mi East 21.9 mph - 0.00 in Snow Light Snow
11:53 PM 35.1 °F 23.3 °F 30.9 °F 85% 29.15 in 8.0 mi East 23.0 mph - 0.00 in   Overcast